Long Lake, NY

11:24 AM EDT on June 24, 2017 (GMT -0400)
Plumley's Garage | | Change Station

Elev 1650 ft 43.97 °N, 74.42 °W | Updated 36 seconds ago

Partly Cloudy
Partly Cloudy
71.1 °F
Feels Like 73 °F
N
0.9
Wind Variable Wind from West
Gusts 2.5 mph

Today
High -- | Low -- °F
--% Chance of Precip.
Yesterday
High -- | Low -- °F
Precip. -- in
Pressure 29.63 in
Visibility 10.0 miles
Clouds Few 2800 ft
Heat Index 73 °F
Dew Point 62 °F
Humidity 73%
Rainfall 0.24 in
Snow Depth Not available.
5:15 AM 8:44 PM
New Moon, 0% visible
METAR KSLK 241451Z AUTO 26007G16KT 240V320 10SM FEW028 20/14 A2965 RMK AO2 SLP033 T02000139 53018
Pressure 29.63 in
Visibility 10.0 miles
Clouds Few 2800 ft
Heat Index 73 °F
Dew Point 62 °F
Humidity 73%
Rainfall 0.24 in
Snow Depth Not available.
5:15 AM 8:44 PM
New Moon, 0% visible
METAR KSLK 241451Z AUTO 26007G16KT 240V320 10SM FEW028 20/14 A2965 RMK AO2 SLP033 T02000139 53018

Get Severe Weather Alerts

Thanks for signing up!

Be on the lookout for a verification email in your inbox.

You'll start receiving the daily forecast at 6 AM.

×

10-Day Weather Forecast

Almanac

Astronomy

Jun. 24, 2017 Rise Set
Actual Time
Civil Twilight
Nautical Twilight
Astronomical Twilight
Moon
Length of Visible Light
Length of Day
Tomorrow will be .
, % of the Moon is Illuminated

Today's Extremes

State Highs State Lows

Community

WunderPhotos

Category 6

Welcome to Category 6. This is the collective home for Weather Underground's featured writeups by Dr. Jeff Masters (right), Bob Henson (left), Chris Burt, and other regular contributors.

Nearby

Air Quality

  Air Quality AQ Index Pollutant
Not available.

Snow Depth

Station Depth Elevation

Earthquake Activity

City Distance Mag. Time & Date
Minimum magnitude displayed is 2.5.

Coastal Water Temperatures

Place Temperature

Stations

Nearby Weather Stations

Station Location Temp. Windchill Dew Point Humidity Wind Precip. Elev Updated Type
                   

Watches & Warnings

There are currently no watches in effect.